{"data":{"norad_id":59199,"epoch":"2026-05-24T23:58:22.876032Z","epoch_age_seconds":75010,"freshness":"FRESH","line1":"1 59199U 24045X   26144.99887588  .00002785  00000+0  11066-3 0  9995","line2":"2 59199  43.0018  21.4357 0001444 272.6872  87.3814 15.27588034124832","mean_motion":15.27588034,"eccentricity":0.0001444,"inclination_deg":43.0018,"raan_deg":21.4357,"arg_perigee_deg":272.6872,"mean_anomaly_deg":87.3814,"bstar":0.00011066,"rev_number":12483,"period_min":94.26625293924,"perigee_km":482.03428766037,"apogee_km":484.01579125737,"semimajor_km":6861.1620394589,"source":"CELESTRAK","updated_at":"2026-05-25T13:38:18.863261Z"}}